Weather in Finspang

Sweden     58°42′15″N   15°46′20″E
temp.,
°C
wind,
m/s
gust,
m/s
humid.,
%
clouds,
%
prec.,
mm/h
press.,
hPa
HPBL,
m
9 may, sun
sun923:00+4sw227891 0.0 101216
02:00+3sw2382100 0.0 101373
05:00+3s2581100 0.0 1012114
08:00+6sse3863100 0.0 1011396
11:00+8sse51067100 0.1 10091186
14:00+5se41195100 1.8 1008928
17:00+6se3898100 1.8 1006419
20:00+10sse289899 2.3 1006209
10 may, mon
mon1023:00+9s2897100 0.1 1006161
02:00+11sse3998100 1.4 1006224
05:00+11se3998100 1.3 1006237
08:00+12sse41197100 3.4 1006422
11:00+18s4976100 0.8 1006759
14:00+23ssw5954100 0.8 10061223
17:00+25s384995 0.0 10061727
20:00+18sse51257100 0.0 1007725
11 may, tue
tue1123:00+13sse41275100 0.0 1008406
02:00+12s398544 0.0 1010276
05:00+10sw269884 0.0 1011136
08:00+14wnw236559 0.0 1013391
11:00+18nnw1147100 0.0 1013934
14:00+17n2256100 0.0 1014844
17:00+15ne2667100 0.0 1013454
20:00+14e3684100 0.0 1013322
12 may, wed
wed1223:00+10ese3992100 0.0 1013273
02:00+9ese289790 0.0 1013246
05:00+10ese3119578 0.0 1012352
08:00+13se5107122 0.0 1012467
11:00+17se610511 0.0 1012798
14:00+19se712435 0.0 10121066
17:00+18se614585 0.0 10121132
20:00+16se513725 0.0 10131055
13 may, thu
thu1323:00+10e310930 0.0 1014228
02:00+9e28952 0.0 1014160
05:00+9e29972 0.0 1013189
08:00+14ese478054 0.0 1013497
11:00+17ese475251 0.0 10131146
14:00+19se56425 0.0 10121370
17:00+18se44435 0.0 10111357
20:00+14ese256441 0.0 1010184